Location: Newark
(5.8900°S, 42.6378°W)
Time: 10:43:48
(UTC+00:00)

YUBILEINY - Visible Passes

Search period start: 19 October 2019 00:00
Search period end: 29 October 2019 00:00
Orbit: 1478 x 1508 km, 82.5° (Epoch: 19 October)

Date Brightness Start Highest point End Pass type
(mag) Time Alt. Az. Time Alt. Az. Time Alt. Az.
19 Oct ? 05:08:10 10° S 05:10:17 20° S 05:10:17 20° S visible
20 Oct ? 04:19:51 10° SSE 04:20:31 12° SSE 04:20:31 12° SSE visible
20 Oct ? 06:16:19 10° SSW 06:16:23 10° SSW 06:16:23 10° SSW visible
21 Oct ? 05:25:44 10° S 05:26:42 14° SSW 05:26:42 14° SSW visible
22 Oct ? 04:36:27 10° S 04:37:05 12° S 04:37:05 12° S visible
24 Oct ? 04:53:47 10° S 04:53:51 10° S 04:53:51 10° S visible
